Temp
62 61 60 59 58 59 58 58 58 58 57 56 57 56 56 58 55 55 54 54 54 55 55 56 56 56 57 55 55 56 55 53 53 52 53 53 52 54 55 53 52 52
61 61 60 60 59 59 58 59 59 59 57 57 58 57 57 57 55 57 55 55 55 54 54 55 55 56 56 56 55 54 53 53 53 55 54 52 51 52 52 51 51 51
60 61 60 60 61 60 59 59 59 58 58 58 58 58 58 57 56 55 56 56 55 54 54 54 53 54 54 54 54 56 55 52 53 52 54 51 51 53 50 50 50 50
61 62 62 62 62 62 61 59 59 59 58 57 58 59 59 59 57 57 56 59 55 55 53 53 53 53 54 53 53 53 52 53 53 52 52 51 52 52 51 51 51 50
62 61 62 62 63 63 61 60 60 59 59 60 59 58 59 58 57 57 57 56 56 55 54 55 53 53 53 53 53 52 53 52 52 51 52 51 52 53 52 52 50 50
63 63 63 63 63 62 61 61 61 60 60 58 59 59 59 59 59 58 58 57 56 56 56 54 55 54 54 53 53 54 54 54 51 51 52 51 52 52 54 51 50 50
61 61 60 62 63 62 62 62 61 60 60 61 60 59 59 59 59 59 58 58 58 57 57 56 55 54 53 54 54 53 53 54 51 52 53 51 51 53 53 50 50 50
61 62 62 62 63 62 61 60 59 60 61 60 60 60 59 60 59 59 59 58 58 58 58 57 57 55 54 54 55 53 52 55 54 53 53 52 50 51 51 52 49 50
59 58 58 57 58 59 59 59 59 58 58 59 59 59 59 60 60 59 59 59 58 58 58 57 58 57 55 55 55 55 54 54 54 53 53 52 51 53 53 51 50 50
56 56 57 57 57 56 57 57 57 56 58 58 59 58 59 58 57 59 58 58 58 57 57 57 57 57 56 56 56 56 55 55 53 52 52 53 53 53 53 52 52 50
54 55 56 57 58 57 59 58 58 57 57 57 56 57 58 58 57 57 56 57 58 58 57 57 58 58 57 57 57 56 56 56 55 55 54 53 54 53 55 53 52 53
55 55 55 56 57 57 57 57 57 58 57 55 55 56 56 56 57 57 58 57 57 58 58 58 58 58 58 58 58 56 56 56 55 55 55 54 54 53 54 53 53 52
55 56 57 57 57 58 57 56 56 56 57 57 55 55 55 55 55 56 56 57 58 58 59 58 58 57 57 58 58 58 57 56 55 54 55 54 54 55 54 53 53 53
56 57 57 57 56 57 57 56 56 56 56 55 55 54 55 55 56 56 55 55 56 56 57 56 57 58 58 58 58 58 57 56 56 55 55 54 54 54 54 53 53 53
56 56 56 56 57 57 55 55 54 54 54 53 54 54 55 54 54 54 54 54 54 54 55 55 56 56 57 57 57 57 57 56 56 56 56 55 54 53 53 53 53 53
54 53 53 53 53 53 54 54 54 54 54 53 54 54 53 53 53 53 53 53 54 53 53 53 54 56 56 53 53 57 56 58 57 57 57 56 55 54 52 53 53 53
52 53 51 52 52 52 53 54 54 54 53 53 53 53 53 52 53 53 52 53 53 53 53 54 55 56 51 46 47 50 57 56 56 56 56 56 56 55 54 54 53 53
51 52 52 52 50 50 50 51 51 51 52 51 52 52 52 52 52 53 53 52 53 51 53 54 54 53 48 46 45 45 49 56 55 55 55 56 56 56 56 55 54 52
48 49 49 50 50 50 49 48 47 48 50 50 50 50 51 50 52 51 52 52 51 52 52 53 53 50 47 46 45 44 44 50 54 54 55 55 55 56 55 54 53 52
48 48 50 49 49 48 47 47 48 50 49 48 48 48 49 48 47 48 48 49 49 51 52 53 52 50 46 45 45 44 43 45 51 52 53 53 54 54 54 54 54 53
49 48 49 49 49 47 46 47 48 48 50 49 49 49 50 49 48 48 47 47 47 48 49 52 53 49 45 44 43 43 43 43 49 52 52 52 53 53 54 54 53 53
51 49 48 48 48 47 49 50 48 47 51 47 48 44 43 44 46 47 47 46 47 47 47 49 49 42 45 44 43 43 42 46 48 48 48 48 49 49 49 49 49 50
49 47 47 47 47 49 50 48 49 48 46 45 51 44 44 44 45 44 44 44 45 46 46 45 42 39 43 43 41 40 43 47 45 46 45 45 45 46 47 50 50 49
47 45 47 47 45 48 47 45 43 43 45 44 50 49 47 44 43 44 40 40 40 42 44 45 39 40 41 40 40 42 46 46 44 45 44 45 45 47 47 47 48 53
47 47 46 45 46 45 44 45 45 46 45 44 45 45 46 42 41 39 38 40 39 39 46 39 37 40 41 40 41 43 45 45 46 45 45 45 46 44 43 42 42 45
47 49 46 45 45 43 43 45 43 45 46 47 45 42 40 38 39 40 38 37 37 37 39 37 37 38 39 41 42 43 44 47 46 46 45 44 44 45 43 41 41 42
MSLP
1016.90 1017.50 1017.74 1017.98 1018.26 1018.30 1018.26 1018.26 1018.30 1018.38 1018.50 1018.62 1018.70 1018.82 1018.82 1018.86 1019.02 1018.98 1018.98 1018.98 1018.98 1018.98 1018.98 1019.06 1019.18 1019.30 1019.38 1019.42 1019.50 1019.58 1019.70 1019.78 1019.82 1019.82 1019.82 1019.86 1019.94 1019.90 1019.94 1020.02 1020.14 1020.22
1016.70 1017.22 1017.66 1017.78 1018.06 1018.30 1018.30 1018.14 1018.26 1018.34 1018.50 1018.62 1018.66 1018.70 1018.74 1018.78 1018.90 1018.90 1018.94 1018.98 1018.98 1018.98 1019.02 1019.10 1019.18 1019.22 1019.34 1019.42 1019.50 1019.66 1019.82 1019.94 1019.98 1020.02 1020.02 1020.10 1020.22 1020.18 1020.26 1020.30 1020.34 1020.42
1016.58 1016.86 1017.42 1017.74 1017.78 1018.02 1018.18 1018.18 1018.18 1018.30 1018.42 1018.58 1018.74 1018.82 1018.82 1018.82 1018.90 1018.94 1018.94 1018.98 1019.02 1019.02 1019.02 1019.14 1019.22 1019.34 1019.42 1019.50 1019.50 1019.58 1019.74 1019.86 1020.02 1020.10 1020.14 1020.26 1020.34 1020.42 1020.54 1020.54 1020.58 1020.54
1016.38 1016.62 1017.06 1017.46 1017.54 1017.66 1017.86 1018.10 1018.18 1018.26 1018.46 1018.74 1018.78 1018.74 1018.74 1018.82 1018.86 1018.90 1018.90 1018.90 1018.98 1019.02 1019.06 1019.14 1019.22 1019.38 1019.42 1019.54 1019.62 1019.74 1019.86 1019.90 1020.02 1020.10 1020.22 1020.30 1020.38 1020.46 1020.58 1020.62 1020.70 1020.74
1016.26 1016.58 1016.82 1017.18 1017.26 1017.34 1017.62 1017.86 1017.98 1018.18 1018.34 1018.38 1018.58 1018.70 1018.74 1018.78 1018.82 1018.82 1018.86 1018.94 1018.90 1018.94 1018.98 1018.98 1019.10 1019.26 1019.42 1019.54 1019.66 1019.82 1019.90 1019.98 1020.14 1020.10 1020.18 1020.30 1020.38 1020.38 1020.54 1020.58 1020.70 1020.78
1016.18 1016.34 1016.58 1016.90 1017.06 1017.22 1017.54 1017.62 1017.66 1017.90 1018.06 1018.34 1018.42 1018.58 1018.62 1018.66 1018.70 1018.66 1018.66 1018.70 1018.78 1018.82 1018.90 1018.90 1019.02 1019.06 1019.22 1019.38 1019.58 1019.70 1019.86 1019.98 1020.10 1020.14 1020.26 1020.34 1020.42 1020.46 1020.50 1020.66 1020.74 1020.78
1016.18 1016.42 1016.62 1016.98 1016.86 1017.02 1017.22 1017.30 1017.50 1017.66 1017.82 1017.90 1018.22 1018.34 1018.38 1018.54 1018.58 1018.54 1018.54 1018.50 1018.54 1018.62 1018.70 1018.82 1018.94 1019.06 1019.14 1019.22 1019.34 1019.50 1019.62 1019.70 1019.94 1020.02 1020.22 1020.38 1020.46 1020.50 1020.58 1020.66 1020.78 1020.86
1016.22 1016.38 1016.42 1016.78 1016.70 1016.94 1017.18 1017.46 1017.78 1017.74 1017.62 1017.86 1018.06 1018.14 1018.26 1018.30 1018.38 1018.42 1018.46 1018.46 1018.50 1018.46 1018.54 1018.66 1018.82 1018.94 1019.06 1019.10 1019.18 1019.38 1019.50 1019.58 1019.74 1019.86 1020.02 1020.18 1020.30 1020.42 1020.54 1020.62 1020.74 1020.86
1016.14 1016.30 1016.58 1017.02 1016.98 1017.02 1017.26 1017.46 1017.62 1017.86 1018.06 1018.06 1018.18 1018.14 1018.18 1018.22 1018.30 1018.42 1018.46 1018.50 1018.54 1018.54 1018.54 1018.62 1018.62 1018.74 1018.94 1019.02 1019.06 1019.14 1019.30 1019.50 1019.62 1019.74 1019.86 1020.02 1020.18 1020.22 1020.30 1020.54 1020.66 1020.74
1016.34 1016.50 1016.62 1016.78 1016.98 1017.34 1017.62 1017.94 1018.02 1018.14 1018.42 1018.50 1018.30 1018.18 1018.18 1018.34 1018.42 1018.38 1018.42 1018.54 1018.66 1018.78 1018.74 1018.66 1018.66 1018.70 1018.70 1018.78 1018.86 1019.02 1019.22 1019.38 1019.54 1019.70 1019.82 1019.94 1020.10 1020.18 1020.30 1020.42 1020.54 1020.70
1016.90 1017.38 1017.22 1016.94 1016.90 1017.06 1017.02 1017.38 1017.94 1018.02 1018.22 1018.10 1017.94 1018.02 1018.02 1018.18 1018.34 1018.38 1018.42 1018.46 1018.54 1018.62 1018.66 1018.66 1018.58 1018.58 1018.66 1018.74 1018.82 1018.90 1018.98 1019.14 1019.30 1019.42 1019.58 1019.70 1019.90 1020.06 1020.18 1020.30 1020.46 1020.54
1016.38 1016.94 1017.90 1017.70 1017.42 1017.50 1017.50 1017.50 1017.58 1017.82 1018.22 1018.54 1018.02 1017.66 1017.86 1018.06 1018.18 1018.26 1018.30 1018.34 1018.34 1018.38 1018.46 1018.50 1018.50 1018.54 1018.58 1018.62 1018.70 1018.86 1018.98 1019.10 1019.18 1019.30 1019.42 1019.58 1019.70 1019.90 1020.06 1020.18 1020.26 1020.34
1016.34 1016.50 1016.82 1017.30 1017.06 1017.10 1017.54 1017.66 1017.78 1018.10 1018.50 1018.66 1018.18 1017.50 1017.66 1017.90 1018.02 1018.10 1018.10 1018.10 1018.14 1018.18 1018.30 1018.38 1018.46 1018.54 1018.58 1018.58 1018.62 1018.74 1018.86 1018.94 1019.10 1019.26 1019.38 1019.54 1019.62 1019.66 1019.82 1019.98 1020.10 1020.26
1017.42 1016.46 1016.54 1016.90 1016.86 1016.86 1017.22 1017.42 1017.58 1017.82 1017.94 1017.70 1017.22 1017.26 1017.46 1017.66 1017.90 1017.98 1017.98 1017.94 1017.90 1017.98 1018.02 1018.10 1018.18 1018.26 1018.34 1018.42 1018.54 1018.62 1018.70 1018.78 1018.90 1019.06 1019.18 1019.34 1019.46 1019.62 1019.74 1019.82 1019.94 1020.06
1016.82 1016.66 1016.70 1016.78 1016.90 1016.90 1016.70 1016.70 1016.82 1016.90 1017.06 1017.10 1017.14 1017.26 1017.38 1017.50 1017.66 1017.86 1017.98 1018.02 1017.98 1017.98 1017.94 1017.98 1018.02 1018.02 1018.10 1018.18 1018.34 1018.50 1018.62 1018.70 1018.78 1018.86 1018.94 1019.10 1019.30 1019.46 1019.62 1019.74 1019.82 1019.94
1016.22 1016.26 1016.34 1016.46 1016.58 1016.62 1016.66 1016.70 1016.74 1016.82 1016.94 1017.10 1017.22 1017.34 1017.42 1017.54 1017.70 1017.82 1017.78 1017.78 1017.78 1017.82 1017.86 1017.90 1017.94 1017.94 1017.94 1017.98 1018.02 1018.14 1018.30 1018.38 1018.54 1018.70 1018.86 1018.90 1019.10 1019.30 1019.54 1019.62 1019.62 1019.70
1016.10 1016.14 1016.34 1016.46 1016.46 1016.62 1016.70 1016.78 1016.82 1016.94 1017.06 1017.14 1017.18 1017.30 1017.34 1017.38 1017.50 1017.50 1017.62 1017.70 1017.82 1017.86 1017.90 1017.98 1017.94 1017.90 1017.82 1017.86 1017.90 1017.90 1018.02 1018.18 1018.30 1018.42 1018.54 1018.74 1018.90 1019.10 1019.26 1019.50 1019.58 1019.62
1016.18 1016.30 1016.38 1016.46 1016.66 1016.74 1016.86 1016.94 1017.06 1017.14 1017.18 1017.22 1017.30 1017.30 1017.30 1017.42 1017.46 1017.42 1017.50 1017.66 1017.78 1017.90 1017.90 1017.86 1017.82 1017.70 1017.66 1017.70 1017.74 1017.82 1017.94 1018.02 1018.14 1018.26 1018.42 1018.54 1018.66 1018.82 1018.94 1019.10 1019.22 1019.46
1016.34 1016.42 1016.46 1016.58 1016.66 1016.78 1016.86 1016.90 1016.94 1016.98 1016.98 1017.06 1017.06 1017.06 1017.18 1017.22 1017.22 1017.42 1017.46 1017.50 1017.58 1017.54 1017.58 1017.58 1017.58 1017.50 1017.54 1017.50 1017.54 1017.66 1017.90 1018.10 1018.18 1018.26 1018.38 1018.46 1018.54 1018.58 1018.66 1018.86 1019.18 1019.42
1016.38 1016.38 1016.46 1016.62 1016.74 1016.74 1016.74 1016.78 1016.90 1016.98 1017.14 1017.22 1017.30 1017.26 1017.18 1017.14 1017.14 1017.18 1017.22 1017.30 1017.38 1017.46 1017.42 1017.38 1017.34 1017.22 1017.34 1017.38 1017.42 1017.50 1017.78 1018.22 1018.22 1018.26 1018.34 1018.38 1018.46 1018.54 1018.66 1018.78 1018.94 1019.14
1016.34 1016.46 1016.50 1016.62 1016.62 1016.58 1016.62 1016.70 1016.82 1016.86 1016.86 1016.94 1016.98 1016.98 1017.02 1017.10 1017.26 1017.30 1017.34 1017.30 1017.22 1017.18 1017.18 1017.22 1017.10 1017.10 1017.26 1017.34 1017.46 1017.70 1018.02 1018.22 1018.26 1018.34 1018.30 1018.30 1018.34 1018.38 1018.46 1018.58 1018.82 1019.02
1016.22 1016.42 1016.50 1016.54 1016.58 1016.58 1016.66 1016.78 1016.82 1016.90 1016.86 1016.94 1016.90 1016.94 1017.02 1017.02 1017.02 1017.10 1017.10 1017.22 1017.34 1017.38 1017.26 1017.10 1017.06 1017.34 1017.30 1017.38 1017.50 1017.62 1017.86 1018.02 1018.14 1018.22 1018.26 1018.34 1018.42 1018.58 1018.74 1018.94 1019.10 1019.30
1016.22 1016.38 1016.50 1016.54 1016.50 1016.50 1016.66 1016.74 1016.78 1016.86 1016.94 1017.10 1016.98 1017.02 1017.02 1017.02 1017.14 1017.34 1017.50 1017.30 1017.10 1017.02 1017.06 1017.02 1017.02 1017.34 1017.50 1017.46 1017.46 1017.50 1017.62 1017.78 1017.98 1018.18 1018.34 1018.46 1018.66 1018.74 1018.82 1018.94 1019.10 1019.38
1016.34 1016.34 1016.38 1016.46 1016.54 1016.54 1016.58 1016.62 1016.70 1016.86 1016.90 1017.02 1016.98 1017.02 1017.02 1017.26 1017.50 1017.34 1017.54 1017.66 1017.50 1017.22 1017.22 1016.94 1016.90 1017.38 1017.58 1017.54 1017.46 1017.50 1017.54 1017.70 1018.02 1018.22 1018.50 1018.66 1018.82 1018.94 1019.06 1019.30 1019.46 1019.46
1016.30 1016.42 1016.46 1016.46 1016.46 1016.46 1016.54 1016.58 1016.66 1016.70 1016.78 1016.98 1016.94 1017.02 1017.26 1017.50 1017.46 1017.38 1017.62 1018.02 1018.22 1018.02 1017.86 1017.62 1017.58 1017.66 1017.70 1017.62 1017.58 1017.58 1017.70 1017.90 1018.14 1018.34 1018.62 1018.86 1018.86 1019.26 1019.78 1020.02 1020.18 1020.22
1016.34 1016.30 1016.34 1016.34 1016.34 1016.42 1016.54 1016.54 1016.62 1016.70 1016.66 1016.70 1016.90 1017.06 1017.14 1017.46 1017.70 1017.78 1017.78 1018.26 1018.70 1018.50 1018.42 1018.38 1018.10 1018.10 1018.10 1017.90 1017.70 1017.62 1017.66 1017.94 1018.18 1018.30 1018.66 1018.98 1019.26 1019.54 1020.02 1020.78 1020.98 1021.06
Wind_Speed
8 4 6 7 5 4 7 8 7 7 6 6 7 7 7 6 4 4 4 4 4 4 5 5 5 5 5 4 4 5 4 4 3 3 4 5 4 5 6 5 5 5
8 5 3 5 6 4 4 7 7 7 7 6 6 6 5 5 4 6 5 4 4 4 4 4 5 6 6 6 5 5 4 4 4 2 5 5 4 6 5 5 4 4
7 7 5 6 8 7 7 6 7 6 7 7 5 5 6 4 5 5 5 5 4 4 4 4 4 4 4 4 4 5 6 5 4 3 4 4 4 6 4 4 4 4
8 9 8 7 8 9 7 7 6 6 5 5 7 7 6 5 6 6 5 5 5 4 4 4 4 4 4 4 4 3 3 4 4 4 4 3 3 4 4 4 4 4
10 8 8 8 8 8 7 7 8 7 8 9 7 6 6 6 7 6 6 5 5 5 4 5 4 5 4 4 4 5 3 4 2 4 4 4 2 3 2 4 4 4
8 9 9 9 9 8 7 8 8 9 9 7 9 7 7 7 7 7 8 8 6 6 5 4 5 4 5 6 5 5 5 4 3 4 4 3 1 1 3 4 4 4
8 7 8 8 8 8 8 8 7 8 9 10 7 8 8 8 8 8 8 8 8 7 7 6 5 4 4 5 6 5 5 6 4 5 5 3 3 1 1 3 3 3
6 6 8 7 7 7 6 4 4 6 8 6 9 8 8 9 8 7 7 7 8 8 7 7 5 5 5 5 6 6 5 4 6 6 6 5 4 4 2 2 3 3
3 3 3 2 0 3 4 4 6 4 4 5 6 7 7 7 9 7 7 6 5 6 6 6 7 7 6 5 5 6 7 5 5 5 6 6 5 6 6 4 4 4
5 5 8 6 5 3 4 3 4 3 1 6 8 6 7 4 4 6 5 6 5 5 5 6 6 6 6 6 7 7 6 6 5 5 5 5 5 5 5 5 5 4
8 9 4 6 6 5 8 6 4 4 3 4 4 4 5 4 3 3 4 5 7 7 7 7 7 7 7 7 6 6 7 7 7 6 6 6 6 6 6 6 5 5
10 8 3 5 5 2 3 3 4 4 1 6 0 5 4 4 5 4 5 6 5 6 6 7 7 7 7 8 7 6 6 6 6 6 6 6 6 6 6 5 6 5
8 9 8 8 6 6 4 3 2 2 3 8 5 4 4 4 4 4 5 6 6 6 6 6 6 5 6 7 6 7 7 7 6 5 5 5 5 6 6 6 6 5
3 6 5 4 3 6 9 10 10 8 7 6 3 3 3 4 6 5 4 4 4 4 4 5 6 6 7 7 6 6 7 7 7 7 6 6 5 5 5 6 6 6
8 5 7 7 7 6 4 4 4 5 4 3 3 3 3 3 3 3 4 4 4 5 5 4 5 6 6 7 7 6 6 6 7 8 8 7 6 6 5 6 6 6
5 4 4 4 4 4 4 3 3 2 2 3 3 3 3 3 2 2 3 4 4 4 3 3 4 4 6 10 9 7 7 7 7 7 7 7 7 7 6 6 7 6
2 2 2 3 4 2 2 3 3 2 2 3 3 3 4 4 1 2 3 3 4 4 4 4 4 5 9 11 13 13 8 6 7 7 7 7 7 8 8 8 5 6
3 1 2 2 3 4 4 4 3 3 4 3 3 3 3 1 2 4 4 3 4 4 4 5 5 7 9 10 12 12 10 6 5 6 6 7 8 8 8 8 9 7
3 3 3 3 3 4 4 4 3 2 0 0 1 3 1 2 4 3 4 4 3 4 5 5 4 7 9 10 11 10 10 7 4 4 5 6 7 8 9 8 7 7
4 4 5 4 4 3 4 4 3 2 2 2 2 0 0 1 2 3 3 3 3 4 5 5 5 8 10 11 11 12 9 6 4 4 4 6 7 7 7 8 8 8
3 4 4 2 1 3 3 3 2 1 1 0 0 0 0 0 1 1 2 3 3 3 4 5 6 8 9 10 9 7 6 7 4 4 4 5 7 7 8 8 7 6
1 1 4 3 2 3 2 1 0 1 1 2 1 2 2 2 3 1 3 4 2 1 3 5 5 6 2 4 7 8 9 5 4 4 4 3 4 3 3 3 4 5
3 3 3 2 2 3 2 2 1 1 2 1 0 2 3 4 3 2 2 3 5 4 2 3 3 4 1 6 7 8 6 4 4 5 5 4 4 4 5 5 5 6
1 3 4 4 4 4 5 4 2 1 2 1 1 1 2 2 2 3 3 3 3 4 3 3 3 4 1 6 8 9 8 6 6 6 5 6 6 5 6 6 5 8
2 3 3 3 3 4 4 3 3 3 1 2 2 1 0 1 2 3 3 4 4 3 5 1 1 4 1 4 8 10 7 5 6 6 7 5 6 7 6 6 5 6
3 3 3 3 3 4 3 3 3 1 3 3 0 2 3 4 3 4 4 4 4 4 4 3 3 2 2 3 7 10 10 7 6 8 7 5 4 6 6 5 5 5
Wind_Direction
124 141 162 159 178 180 160 159 166 161 166 162 157 171 169 178 160 139 143 128 129 128 122 110 110 104 102 93 91 84 82 87 72 72 74 82 71 76 77 81 73 86
127 135 182 165 168 188 183 168 169 166 171 174 175 170 178 160 169 150 151 141 134 136 124 110 118 129 128 123 115 104 93 85 79 66 79 69 65 67 66 73 84 78
142 146 172 183 176 187 187 183 172 174 169 182 172 174 176 170 161 160 151 146 142 147 135 123 119 127 125 125 127 125 126 122 118 100 89 89 83 79 82 90 75 76
164 166 174 189 186 185 187 176 182 173 163 160 183 184 175 177 164 163 162 151 147 152 148 123 126 132 130 133 120 107 117 121 137 121 102 93 94 98 90 95 95 73
176 175 176 190 190 189 181 179 177 175 175 183 181 183 176 169 168 165 162 161 157 162 164 156 140 141 133 130 125 117 118 122 113 102 106 111 122 108 109 97 96 87
181 178 182 186 189 182 190 187 182 177 179 172 184 183 186 177 174 172 168 166 169 166 171 169 156 160 147 144 136 143 147 136 137 109 113 128 111 74 104 105 104 95
187 173 169 201 191 182 190 196 180 177 177 183 174 186 181 180 181 180 176 173 170 170 169 176 166 172 165 152 149 156 165 160 153 143 143 164 133 112 68 111 109 108
185 189 182 198 186 183 188 183 193 191 185 171 179 191 183 185 184 182 181 176 176 176 173 175 176 176 176 163 162 166 180 178 163 160 161 171 160 171 188 148 128 133
147 140 86 35 336 146 155 170 193 188 197 174 191 191 198 185 185 183 187 182 180 181 178 179 181 180 182 179 182 176 179 191 180 169 168 173 175 182 182 162 134 141
100 107 111 109 89 50 33 355 13 28 33 203 206 195 187 206 197 187 173 176 180 190 193 191 190 191 190 188 187 183 180 186 188 181 181 180 184 185 178 166 164 147
61 14 43 127 164 179 169 173 210 208 223 167 153 171 190 187 186 175 176 179 185 190 196 199 199 196 195 203 202 192 185 184 189 190 189 188 187 188 184 177 169 170
110 124 231 226 160 199 254 237 195 173 30 337 245 135 145 165 167 174 176 192 200 200 199 203 205 203 201 204 203 195 191 191 193 196 196 191 192 190 186 186 179 183
139 173 182 209 190 173 173 195 220 211 191 211 211 149 146 143 157 161 179 177 194 193 201 203 208 213 215 216 208 196 193 191 195 200 201 198 200 192 188 186 184 184
254 196 169 192 207 175 183 191 176 193 211 214 152 149 172 181 175 182 198 184 191 191 198 189 195 203 210 214 212 205 197 198 194 196 199 202 202 200 188 187 186 186
187 189 159 171 182 194 195 198 196 193 179 154 167 199 213 224 210 183 185 211 222 213 211 196 191 202 200 198 200 203 200 201 202 201 201 198 198 199 193 189 189 187
171 157 158 156 158 173 204 215 222 224 210 207 216 223 236 237 220 203 199 210 225 239 226 210 210 210 205 197 191 191 193 198 200 204 206 202 194 190 194 194 188 185
135 182 143 160 190 202 221 223 232 237 240 256 265 256 246 244 219 244 236 222 221 220 227 230 229 223 214 203 206 205 197 197 197 204 201 201 195 186 188 193 193 183
183 181 166 189 162 191 199 204 204 207 219 234 245 264 261 273 258 248 249 232 218 217 224 231 235 238 230 223 217 215 209 201 198 196 198 198 196 192 188 186 186 180
123 135 136 117 153 144 137 109 92 77 48 52 233 239 236 226 244 248 257 260 248 250 253 245 246 245 238 235 232 222 214 212 209 206 199 204 199 198 193 186 173 164
132 115 118 137 150 132 108 95 97 123 179 185 159 119 237 279 294 274 267 254 232 232 249 255 244 249 232 231 232 229 217 193 222 207 206 203 203 197 190 182 174 168
120 123 144 179 133 89 68 64 82 58 40 66 214 140 126 178 199 225 252 256 271 252 245 264 254 250 235 229 235 236 204 190 217 222 209 205 204 196 190 178 169 160
150 172 182 184 131 93 86 65 20 17 288 321 356 355 0 17 358 30 2 338 302 231 226 258 277 357 337 214 187 187 179 186 195 194 186 177 165 134 112 100 106 111
155 171 201 220 150 133 158 201 221 255 273 240 341 359 359 341 341 358 336 342 323 311 268 254 281 334 34 159 169 165 144 134 110 105 104 108 101 110 116 117 117 129
171 156 182 189 165 177 197 222 230 284 262 199 180 251 314 331 348 352 19 23 9 335 299 231 271 325 359 157 169 166 150 135 126 113 107 107 105 93 87 74 62 100
158 163 175 185 196 223 210 213 214 209 229 163 174 151 138 20 34 53 27 21 8 4 26 48 354 347 8 151 145 142 126 124 122 119 112 114 109 86 60 63 52 60
226 208 189 173 195 223 219 218 219 204 232 214 123 81 77 60 74 74 61 22 6 18 30 40 45 7 7 146 139 131 129 124 129 124 127 117 88 91 84 56 57 64